www.pogodaiklimat.ru

Погода и климат >> Архив погоды >> Катар >> Духан


ПОГОДА в Духане

  • Прогноз погоды в Духане
  • Монитор погоды в Духане

АРХИВ ПОГОДЫ в Духане

Время (UTC), дата Ветер
(напр.,м/с)
 
Видим.   Явления Облачность Т
(С)
Тd
(С)
f
(%)
Тe
(С)
Тes
(С)
Комфортность P
(гПа)
Po
(гПа)
Тmin
(С)
Tmax
(С)
R
(мм)
R24
(мм)
S
(см)
03 17.03 С 11 16 км н/о +21.5 +17.4 77 +26 +26 душно 1008.0 1007.8
06 17.03 С 11 16 км н/о +21.5 +17.4 77 +26 +26 душно 1008.0 1007.8 +21.5
09 17.03 СЗ 9 10 км н/о +23.3 +19.2 78 +30 +30 очень
душно
1010.1 1009.9
12 17.03 СЗ 10 1000 м н/о +23.1 +14.0 57 +27 +27 душно 1010.3 1010.1
15 17.03 С 13 9000 м н/о +21.8 +10.0 47 +23 +23 комфорт 1012.5 1012.3
18 17.03 С 11 н/о н/о +21.2 +12.3 57 +23 +23 комфорт 1015.4 1015.2 +24.3
21 17.03 СЗ 7 н/о н/о +20.3 +14.3 68 +22 +22 комфорт 1016.1 1015.9
00 18.03 СЗ 13 3000 м н/о +20.5 +10.1 51 +21 +21 комфорт 1015.3 1015.1
03 19.03 СЗ 10 14 км н/о +19.4 +13.1 67 +20 +20 1018.5 1018.3
06 19.03 СЗ 11 12 км н/о +19.7 +13.4 67 +20 +20 1019.8 1019.6 +14.7
09 19.03 СЗ 10 18 км н/о +20.6 +10.9 54 +22 +22 комфорт 1018.7 1018.5
12 19.03 С 9 20 км н/о +22.6 +7.5 38 +24 +24 комфорт 1015.7 1015.5
15 19.03 С 8 20 км н/о +20.7 +5.5 37 +21 +21 комфорт 1016.4 1016.2
18 19.03 С 17 20 км н/о +20.4 +6.8 41 +20 +20 1016.4 1016.2 +22.8
21 19.03 С 15 20 км н/о +20.1 +8.2 46 +20 +20 1015.9 1015.7
00 20.03 С 12 20 км н/о +19.7 +11.2 58 +20 +20 1014.2 1014.0
03 20.03 СЗ 14 20 км н/о +19.0 +12.9 68 +19 +19 1015.0 1014.8
06 20.03 СЗ 11 20 км н/о +19.7 +12.5 63 +20 +20 1016.9 1016.7 +18.8
09 20.03 СЗ 11 20 км н/о +21.2 +13.9 63 +24 +24 комфорт 1015.2 1015.0
12 20.03 С 10 20 км н/о +24.1 +5.8 31 +24 +24 комфорт 1012.8 1012.6
15 20.03 С 7 20 км н/о +21.1 +11.6 55 +23 +23 комфорт 1013.3 1013.1
18 20.03 С 6 20 км н/о +20.2 +14.4 69 +22 +22 комфорт 1014.3 1014.1 +24.1
21 20.03 СЗ 9 20 км н/о +20.3 +15.7 75 +22 +22 комфорт 1013.6 1013.4
00 21.03 С 3 20 км н/о +19.3 +13.1 67 +21 +21 комфорт 1012.7 1012.5
21 22.03 СВ 6 20 км н/о +21.4 +14.0 63 +24 +24 комфорт 1012.1 1011.9
00 23.03 В 9 20 км н/о +20.7 +15.1 70 +23 +23 комфорт 1010.6 1010.4
12 23.03 В 18 8000 м н/о +28.0 +15.9 48 +31 +31 душно 1007.8 1007.6
15 23.03 В 20 16 км н/о +23.2 +15.5 62 +27 +27 душно 1008.8 1008.6
18 23.03 В 12 19 км н/о +22.3 +16.1 68 +26 +26 жарко 1009.6 1009.4 +30.2
21 23.03 В 10 19 км н/о +21.4 +16.3 73 +25 +25 комфорт 1008.7 1008.5

 

Местоположение метеостанции Духан (Катар): широта 25.40 долгота 50.75 высота над уровнем моря 5 м.

В архиве по умолчанию представлена погода в Духане за последнюю неделю. Архивные данные за месяц целиком и за предыдущие месяцы, начиная с января 2011 года, Вы можете получить, выбрав интересующий диапазон дат из раскрывающегося списка и нажав кнопку "Ввод!".


*Определитесь, кто Вы:
робот инопланетянин человек

Внимание! Время в таблицах - всемирное. Для получения местного времени необходимо прибавить поправку, которая равна 4 ч.

Смотрите также архив погоды в соседних городах и на ближайших метеорологических станциях:

Погода в Абу Самба (Катар) (73 км)
Погода в Дохе (Катар) (84 км)
Погода в Аэропорту Хамад (Катар) (88 км)
Погода в Доха порту (Катар) (91 км)
Погода в Бахрейне (Бахрейн) (97 км)
Погода в Дахране (Саудовская Аравия) (113 км)
Погода в Эль-Хуфуфе (Саудовская Аравия) (128 км)
Погода в Эд-Даммаме (Саудовская Аравия) (149 км)
Погода в Бендер-Дейере (Иран) (295 км)
Погода на Острове Киш (Иран) (345 км)

Пояснения к столбцам:

Ветер - указаны скорость ветра в м/с - средняя за 10 мин, порывы в срок и между сроками (в фигурных скобках) и направление, откуда дует ветер: С - северный, СВ - северо-восточный, В - восточный, ЮВ - юго-восточный, Ю - южный, ЮЗ - юго-западный, З - западный, СЗ - северо-западный.
Видимость - горизонтальная дальность видимости в метрах или километрах. При видимости от 1 до 10 км при отсутствии осадков обычно наблюдается дымка, при ухудшении видимости до 1 км и менее - туман. В сухую погоду видимость может ухудшаться дымом, пылью или мглою.
Явления - указаны атмосферные явления, наблюдавшиеся в срок или в последний час перед сроком; фигурными скобками обозначены явления, наблюдавшиеся между сроками (за 1-3 часа до срока); квадратными скобками обозначены град или гололедные отложения с указанием их диаметра в мм.
Облачность - указаны через наклонную черту общая и нижняя облачность в баллах и высота нижней границы облаков в метрах; квадратными скобками обозначены формы облаков: Ci - перистые, Cs - перисто-слоистые, Cc - перисто-кучевые, Ac - высококучевые, As - высокослоистые, Sc - слоисто-кучевые, Ns - слоисто-дождевые, Cu - кучевые, Cb - кучево-дождевые. Подробнее классификацию облаков см. в Атласе облаков (PDF).
T - Температура воздуха - температура, измеренная на высоте 2 м над землей.
Td - Температура точки росы - температура, при понижении до которой содержащийся в воздухе водяной пар достигнет насыщения.
f - Относительная влажность воздуха - влажноcть воздуха, измеренная на высоте 2 м над землей.
Te - Эффективная температура - температура, которую ощущает одетый по сезону человек в тени. Характеристика душности погоды. При расчете учитывается влияние влажности воздуха и скорости ветра на теплоощущения человека.
Tes - Эффективная температура на солнце - температура, которую ощущает человек, с поправкой на солнечный нагрев. Характеристика знойности погоды. Зависит от высоты солнца над горизонтом, облачности и скорости ветра. Ночью, в пасмурную погоду, а также при ветре 12 м/с и более поправка равна нулю.
P - Атмосферное давление - приведенное к уровню моря атмосферное давление.
Po - Атмосферное давление - измеренное на уровне метеостанции атмосферное давление.
Tmin - Минимальная температура - минимум температуры воздуха на высоте 2 м над землей.
Tmax - Максимальная температура - максимум температуры воздуха на высоте 2 м над землей.
R - Количество осадков - Количество выпавших осадков за период времени, мм. При наведении курсора мыши на число - период времени, за который выпало указанное количество осадков.
R24 - Количество осадков - Количество выпавших осадков за 24 часа, мм.
S - Снежный покров - Высота снежного покрова, см. При наведении курсора мыши на число - состояние снежного покрова и степень покрытия местности в баллах.